Home   Weather   Gera   Past weeks
Flag for Germany

Past Weather in Gera, Thuringia, Germany — Yesterday and Last 2 Weeks

Now
23 °F

Sunny.


Feels Like: 23 °F
Forecast: 51 / 27 °F
Wind: 2 mph from North

Location: Altenburg Nobitz

Current Time: Apr 1, 2020 at 8:11:59 am

Latest Report: Apr 1, 2020 at 7:20 am


Visibility: N/A

Pressure: 30.24 "Hg

Humidity: 80%

Dew Point: 18 °F

Location of GeraLocation

Past Weather in Gera — Graph

°F

Gera Temperature Yesterday

Maximum temperature yesterday: 39 °F (at 4:20 pm)
Minimum temperature yesterday: 27 °F (at 10:50 pm)
Average temperature yesterday: 34 °F

High & Low Weather Summary for the Past Weeks

 TemperatureHumidityPressure
High64 °F (Mar 27, 2:20 pm)100% (Mar 17, 10:20 pm)30.69 "Hg (Mar 17, 10:20 pm)
Low18 °F (Mar 23, 4:50 am)25% (Mar 25, 12:50 pm)30.04 "Hg (Mar 28, 2:50 pm)
Average39 °F66%30.32 "Hg
* Reported Mar 17 5:20 am — Apr 1 6:50 am, Gera. Weather by CustomWeather, © 2020

Note: Actual official high and low records may vary slightly from our data, if they occured in-between our weather recording intervals... More about our weather records

Gera Weather History for the Previous 24 Hours

Scroll right to see more
 ConditionsComfort  
Time TempWeatherWind HumidityBarometerVisibility
6:50 am
Wed, Apr 1
21 °FSunny.2 mph80%30.24 "HgN/A
6:20 am23 °FClear.2 mph80%30.24 "HgN/A
5:50 am23 °FClear.3 mph80%30.24 "HgN/A
5:20 am23 °FClear.1 mph80%30.24 "HgN/A
4:50 am23 °FClear.1 mph80%30.24 "HgN/A
4:20 am23 °FClear.2 mph80%30.27 "HgN/A
3:50 am23 °FClear.2 mph86%30.27 "HgN/A
3:20 am23 °FClear.2 mph86%30.27 "HgN/A
2:50 am23 °FClear.2 mph86%30.30 "HgN/A
2:20 am23 °FClear.1 mph86%30.30 "HgN/A
1:50 am23 °FClear.2 mph86%30.30 "HgN/A
1:20 am25 °FClear.2 mph80%30.30 "HgN/A
12:50 am25 °FClear.2 mph80%30.30 "HgN/A
12:20 am25 °FClear.1 mph74%30.33 "HgN/A
11:50 pm
Tue, Mar 31
27 °FClear.2 mph69%30.33 "HgN/A
11:20 pm27 °FClear.1 mph69%30.33 "HgN/A
10:50 pm27 °FClear.2 mph69%30.33 "HgN/A
10:20 pm28 °FClear.3 mph59%30.33 "HgN/A
9:50 pm28 °FClear.3 mph59%30.33 "Hg5 mi
9:20 pm30 °FClear.2 mph55%30.36 "HgN/A
8:50 pm32 °FClear.2 mph51%30.36 "HgN/A
8:20 pm36 °FClear.1 mph44%30.36 "HgN/A
7:50 pm36 °FPassing clouds.5 mph48%30.36 "HgN/A
7:20 pm36 °FPartly sunny.5 mph44%30.36 "HgN/A
6:50 pm37 °FPartly sunny.7 mph41%30.36 "HgN/A
6:20 pm39 °FOvercast.9 mph39%30.36 "HgN/A
5:50 pm39 °FSunny.3 mph36%30.36 "Hg10 mi
5:20 pm39 °FPassing clouds.9 mph39%30.36 "HgN/A
4:50 pm39 °FPassing clouds.8 mph39%30.36 "HgN/A
4:20 pm39 °FPassing clouds.5 mph39%30.36 "HgN/A
3:20 pm37 °FPassing clouds.8 mph41%30.39 "HgN/A
2:50 pm37 °FPassing clouds.12 mph41%30.39 "HgN/A
2:20 pm37 °FPassing clouds.9 mph41%30.39 "HgN/A
1:50 pm37 °FPassing clouds.9 mph41%30.39 "HgN/A
12:50 pm37 °FPassing clouds.10 mph45%30.39 "HgN/A
12:20 pm36 °FSunny.13 mph48%30.39 "Hg10 mi
11:50 am37 °FScattered clouds.9 mph45%30.39 "HgN/A
10:50 am36 °FPassing clouds.7 mph56%30.39 "HgN/A
10:20 am34 °FPassing clouds.10 mph70%30.42 "HgN/A
9:50 am32 °FScattered clouds.12 mph75%30.39 "HgN/A
9:20 am32 °FScattered clouds.8 mph80%30.39 "HgN/A
8:50 am34 °FPartly sunny.8 mph75%30.39 "HgN/A
8:20 am32 °FPartly sunny.7 mph80%30.36 "HgN/A
Weather by CustomWeather, © 2020

See weather overview

Advertising